Location: Melbourne
(37.8170°S, 144.9670°E)
Time: 09:37:40
(UTC+10:00)

Explorer 11/Cluster Stage 4 - Visible Passes

Search period start: 19 April 2014 00:00
Search period end: 29 April 2014 00:00
Orbit: 468 x 1288 km, 28.8° (Epoch: 16 April)

Date Brightness Start Highest point End Pass type
(mag) Time Alt. Az. Time Alt. Az. Time Alt. Az.
19 Apr 8.8 19:17:26 10° NNW 19:23:32 24° NNE 19:26:08 20° NE visible
19 Apr 8.9 21:04:50 10° NW 21:08:35 26° NW 21:08:35 26° NW visible
20 Apr 8.7 19:10:49 10° NNW 19:17:11 27° NNE 19:20:29 21° NE visible
20 Apr 8.7 20:58:30 10° WNW 21:02:56 31° NW 21:02:56 31° NW visible
21 Apr 8.6 19:04:19 10° NW 19:10:51 29° NNE 19:14:46 21° ENE visible
21 Apr 8.6 20:52:12 10° WNW 20:57:13 34° NW 20:57:13 34° NW visible
22 Apr 8.4 18:57:55 10° NW 19:04:31 32° NNE 19:09:00 20° ENE visible
22 Apr 8.4 20:45:57 10° WNW 20:51:27 38° NNW 20:51:27 38° NNW visible
23 Apr 8.4 18:51:34 10° NW 18:58:11 35° NNE 19:03:12 19° ENE visible
23 Apr 8.3 20:39:44 10° WNW 20:45:39 41° NNW 20:45:39 41° NNW visible
24 Apr 8.3 18:45:18 10° NW 18:51:53 37° NNE 18:57:23 17° ENE visible
24 Apr 8.2 20:33:33 10° WNW 20:39:49 42° NNW 20:39:49 42° NNW visible
25 Apr 8.2 18:39:05 10° NW 18:45:35 38° NNE 18:51:32 16° ENE visible
25 Apr 8.1 20:27:25 10° WNW 20:33:58 43° NNW 20:33:58 43° NNW visible
26 Apr 8.1 18:32:55 10° WNW 18:39:18 40° N 18:45:41 14° ENE visible
26 Apr 8.1 20:21:18 10° WNW 20:28:08 42° N 20:28:08 42° N visible
27 Apr 8.1 18:26:48 10° WNW 18:33:02 40° N 18:39:51 12° ENE visible
27 Apr 8.1 20:15:13 10° WNW 20:22:06 40° N 20:22:18 40° N visible
28 Apr 8.1 18:20:43 10° WNW 18:26:46 40° N 18:33:59 10° ENE visible
28 Apr 8.2 20:09:11 10° WNW 20:15:48 37° N 20:16:29 37° N visible
